Flag for Germany Weather past 2 weeks in Osnabrück, Lower Saxony, Germany

Now
64 °F

Sunny.


Feels Like: 64 °F
Forecast: 40 / 59 °F
Wind: 7 mph from Northwest

Location: Muenster / Osnabrueck

Current Time: Apr 21, 2015 at 12:50:33 PM

Latest Report: Apr 21, 2015 at 12:20 PM


Visibility: 10 mi

Pressure: 30.45 "Hg

Humidity: 40%

Dew point: 39 °F

Location of OsnabrückLocation

Historic Weather in Osnabrück — Graph

°F

Osnabrück temperature yesterday

Maximum temperature yesterday: 66 °F (at 4:20 PM)
Minimum temperature yesterday: 37 °F (at 5:50 AM)
Average temperature yesterday: 53 °F

Past Weeks' High & Low Weather Summary

 TemperatureHumidityPressure
High73 °F (Apr 15, 2:50 PM)100% (Apr 7, 2:20 AM)30.60 "Hg (Apr 7, 2:20 AM)
Low30 °F (Apr 7, 3:50 AM)31% (Apr 12, 7:20 PM)29.92 "Hg (Apr 15, 5:50 PM)
Average50 °F69%30.26 "Hg
* Reported Apr 6 11:20 AM — Apr 21 11:20 AM, Osnabrück, Weather by CustomWeather, © 2015

Note: Actual official high and low records may vary slightly from our data, if they occured in-between our weather recording intervals... More about our weather records

Advertising

Osnabrück weather history for previous 24 hours

 ConditionsComfort  
Time TempWeatherWind HumidityBarometerVisibility
11:20 AM
Tue, Apr 21
61 °FSunny.7 mph45%30.45 "Hg10 mi
10:50 AM57 °FSunny.7 mph55%30.45 "Hg10 mi
10:20 AM55 °FSunny.6 mph59%30.45 "Hg10 mi
9:50 AM54 °FSunny.5 mph63%30.42 "Hg10 mi
9:20 AM52 °FSunny.3 mph72%30.42 "Hg10 mi
8:50 AM48 °FSunny.3 mph82%30.45 "Hg10 mi
8:20 AM45 °FSunny.1 mph87%30.42 "Hg10 mi
7:50 AM43 °FSunny.2 mph93%30.42 "Hg10 mi
7:20 AM39 °FFog.2 mph100%30.42 "Hg5 mi
6:50 AM39 °FFog.3 mph100%30.42 "Hg5 mi
6:20 AM39 °FSleet. Fog.3 mph100%30.42 "HgN/A
5:20 AM39 °FFog.2 mph100%30.39 "HgN/A
4:50 AM39 °FFog.5 mph93%30.39 "HgN/A
4:20 AM39 °FFog.3 mph93%30.39 "HgN/A
3:50 AM41 °FClear.3 mph93%30.39 "Hg10 mi
3:20 AM41 °FClear.3 mph100%30.39 "Hg10 mi
2:50 AM43 °FClear.2 mph93%30.39 "Hg10 mi
2:20 AM45 °FClear.3 mph87%30.39 "Hg10 mi
1:50 AM45 °FClear.3 mph87%30.39 "Hg10 mi
1:20 AM46 °FClear.3 mph76%30.39 "Hg10 mi
12:50 AM46 °FClear.2 mph71%30.39 "Hg10 mi
12:20 AM48 °FClear.5 mph66%30.39 "Hg10 mi
11:50 PM
Mon, Apr 20
50 °FClear.2 mph62%30.39 "Hg10 mi
11:20 PM52 °FClear.3 mph58%30.39 "Hg10 mi
10:50 PM52 °FClear.5 mph58%30.39 "Hg10 mi
10:20 PM54 °FClear.5 mph54%30.39 "Hg10 mi
9:50 PM54 °FClear.6 mph54%30.36 "Hg10 mi
9:20 PM57 °FSunny.7 mph48%30.36 "Hg10 mi
8:50 PM57 °FSunny.6 mph48%30.36 "Hg10 mi
8:20 PM61 °FSunny.5 mph42%30.36 "Hg10 mi
7:50 PM63 °FSunny.8 mph42%30.33 "Hg10 mi
7:20 PM64 °FSunny.7 mph43%30.33 "Hg10 mi
6:50 PM64 °FSunny.8 mph40%30.33 "Hg10 mi
6:20 PM64 °FSunny.7 mph40%30.33 "Hg10 mi
5:50 PM64 °FSunny.8 mph37%30.33 "Hg10 mi
5:20 PM66 °FSunny.10 mph37%30.33 "Hg10 mi
4:50 PM66 °FSunny.8 mph35%30.33 "Hg10 mi
4:20 PM66 °FPassing clouds.8 mph37%30.33 "HgN/A
3:50 PM64 °FSunny.7 mph37%30.33 "Hg10 mi
3:20 PM64 °FSunny.8 mph40%30.36 "Hg10 mi
2:50 PM64 °FSunny.8 mph37%30.36 "Hg10 mi
2:20 PM63 °FSunny.9 mph39%30.36 "Hg10 mi
1:50 PM63 °FSunny.5 mph45%30.36 "Hg10 mi
1:20 PM63 °FSunny.7 mph39%30.36 "Hg10 mi
12:50 PM61 °FSunny.7 mph36%30.39 "Hg10 mi
12:20 PM59 °FSunny.6 mph45%30.39 "Hg10 mi
Weather by CustomWeather, © 2015

See weather overviewHow to use our weather pages